Hourly Data Report for September 04, 2017

All times are specified in Local Standard Time (LST). Add 1 hour to adjust for Daylight Saving Time where and when it is observed.

SATURNA ISLAND CS
BRITISH COLUMBIA

48°47'02.067" N
123°02'41.082" W
24.40 m
1017101
71473
WEZ

Download Data

Hourly Data (September 2017)
Hourly Data Report for September 4, 2017
Temp Definition
°C
Dew Point Temp Definition
°C
Rel Hum Definition
%
Wind Dir Definition
10's deg

Wind Spd Definition
km/h
Visibility Definition
km
Stn Press Definition
kPa
Hmdx Definition


Wind Chill Definition


Weather Definition


TIME
00:00 18.3 13.2 72 25 5   101.44     LegendNANA
01:00 19.7 15.0 74 21 3   101.46     LegendNANA
02:00 20.4 16.2 77 29 4   101.47 25   LegendNANA
03:00 20.6 16.4 77 29 6   101.48 25   LegendNANA
04:00 20.8 15.8 73 29 7   101.48 25   LegendNANA
05:00 20.4 15.3 72 28 7   101.49 25   LegendNANA
06:00 20.4 15.3 72 27 6   101.50 25   LegendNANA
07:00 21.0 15.5 71 28 7   101.52 25   LegendNANA
08:00 21.2 15.7 71 31 9   101.51 26   LegendNANA
09:00 21.6 15.8 70 30 9   101.50 26   LegendNANA
10:00 22.6 15.8 65 30 7   101.49 27   LegendNANA
11:00 23.8 15.6 60 28 7   101.43 28   LegendNANA
12:00 24.7 15.4 56 29 7   101.36 29   LegendNANA
13:00 24.9 14.7 53 28 8   101.30 29   LegendNANA
14:00 25.0 14.7 53 31 5   101.22 29   LegendNANA
15:00 25.5 14.4 50 32 3   101.15 29   LegendNANA
16:00 24.4 14.7 55 32 5   101.07 28   LegendNANA
17:00 24.4 14.3 54 5 3   100.99 28   LegendNANA
18:00 23.8 14.4 56 34 3   100.92 27   LegendNANA
19:00 22.5 13.4 56 3 2   100.90 26   LegendNANA
20:00 21.4 14.4 64 30 3   100.92 25   LegendNANA
21:00 21.7 15.0 66 31 2   100.91 26   LegendNANA
22:00 19.7 13.0 65 21 4   100.91     LegendNANA
23:00 20.6 14.8 70 30 4   100.90     LegendNANA

Notes on Data Quality.

Legend

  • E = Estimated
  • M = Missing
  • NA = Not Available
  • ‡ = Partner data that is not subject to review by the National Climate Archives
Date modified: